Regional Weather Roundup
Issued by NWS Charleston, WV

Home | Current Version | Previous Version | Text Only | Print | Product List | Glossary Off
Versions: 1 2 3 4 5 6 7 8 9 10 11 12 13 14 15 16 17 18 19 20 21 22 23 24 25 26 27 28 29 30 31 32 33 34 35 36 37 38 39 40 41 42 43 44 45 46 47 48 49 50

000
ASUS41 KRLX 180310
RWRRLX
West Virginia Regional Weather Roundup
National Weather Service Charleston WV
1000 PM EST WED DEC 17 2014

Note: "fair" indicates few or no clouds below 12,000 feet with no
significant weather and/or obstructions to visibility.

WVZ003-180400-
Northern Panhandle of West Virginia

CITY           SKY/WX    TMP DP  RH WIND       PRES   REMARKS
WHEELING       CLOUDY    29  22  75 W17G24    30.14R
$$

WVZ009-180400-
Northwest West Virginia

CITY           SKY/WX    TMP DP  RH WIND       PRES   REMARKS
PARKERSBURG    CLOUDY    31  23  72 W9G17     30.23R
$$

WVZ006-180400-
Western West Virginia

CITY           SKY/WX    TMP DP  RH WIND       PRES   REMARKS
HUNTINGTON     CLOUDY    32  24  72 VRB5      30.23R
$$

WVZ015-180400-
West Central West Virginia

CITY           SKY/WX    TMP DP  RH WIND       PRES   REMARKS
CHARLESTON     CLOUDY    33  24  69 W13       30.21R
$$

WVZ022-031-180400-
North Central West Virginia

CITY           SKY/WX    TMP DP  RH WIND       PRES   REMARKS
CLARKSBURG     CLOUDY    31  24  75 W13       30.15R
MORGANTOWN     FLURRIES  31  19  61 W12G23    30.13S
$$

WVZ025-035-042-045-180400-
Southern West Virginia

CITY           SKY/WX    TMP DP  RH WIND       PRES   REMARKS
BECKLEY        CLOUDY    31  24  75 NW15G22   30.12S
LOGAN          CLOUDY    30  27  86 CALM      30.18S
BLUEFIELD      CLOUDY    32  27  81 W12G18    30.10S
LEWISBURG      MOCLDY    33  26  73 W5        30.09S
$$

WVZ047-180400-
Northern Mountains of West Virginia

CITY           SKY/WX    TMP DP  RH WIND       PRES   REMARKS
ELKINS         CLOUDY    30  24  78 W14G21    30.11R
$$

WVZ052-180400-
Eastern Panhandle of West Virginia

CITY           SKY/WX    TMP DP  RH WIND       PRES   REMARKS
MARTINSBURG    CLOUDY    38  20  48 VRB5      30.07F
PETERSBURG     PTCLDY    37  20  52 W23G32    30.08S
$$



USA.gov is the U.S. government's official web portal to all federal, state and local government web resources and services.